#timestamp,LO_Frequency,Hit 
1505592015.6,286047001.2,N
1505592035.4,286046998.7,N
1505592055.3,286047000.9,N
1505592075.1,286047000.3,N
1505592076.0,286047000.3,N
1505592095.8,286047004.0,N
1505592115.7,286047001.7,N
1505592135.5,286047002.3,N
1505592155.3,286047004.0,N
1505592175.2,286047002.6,N
1505592195.9,286047000.1,N
1505592215.7,286047001.2,N
1505592235.5,286046998.2,N
1505592255.4,286047000.4,N
1505592275.2,286046998.3,N
1505592295.0,286047000.1,N
1505592295.9,286047000.1,N
1505592315.8,286047002.3,N
1505592335.6,286047001.4,N
1505592355.4,286047007.3,P
1505592375.3,286047006.0,N
1505592395.1,286047005.2,N
1505592415.8,286047005.4,N
1505592435.7,286047002.9,N
1505592455.5,286046999.8,N
1505592475.3,286046999.8,N
1505592495.2,286047004.1,N
1505592515.9,286047005.8,N
1505592535.7,286047007.0,N
1505592555.6,286047004.7,N
1505592575.4,286047007.6,P
1505592595.2,286047003.8,N
1505592615.1,286047001.9,N
1505592616.0,286047001.9,N
1505592635.8,286047001.9,N
1505592655.6,286047001.3,N
1505592675.5,286047003.0,N
1505592695.3,286047002.9,N
1505592715.1,286047001.6,N
1505592735.9,286046999.7,N
1505592755.7,286046998.6,N
1505592775.5,286047001.2,N
1505592795.3,286047000.4,N
1505592815.2,286047000.2,N
1505592835.0,286047002.6,N
1505592835.9,286047002.6,N
1505592855.7,286047002.5,N
1505592875.6,286046998.3,N
1505592895.4,286047000.1,N
1505592915.2,286046999.3,N
1505592935.1,286047001.2,N
1505592936.0,286047001.2,N
1505592955.8,286047003.9,N
1505592975.6,286047003.3,N
1505592995.5,286047001.6,N
1505593015.3,286047004.2,N
1505593035.1,286047001.4,N
1505593055.9,286047004.1,N
1505593075.7,286047001.5,N
1505593095.5,286047002.6,N
1505593115.3,286047000.2,N
1505593135.2,286046999.9,N
1505593155.0,286047002.3,N
1505593155.9,286047002.3,N
1505593175.7,286047001.7,N
1505593195.6,286047002.2,N
1505593215.4,286047001.7,N
1505593235.2,286047002.1,N
1505593255.1,286047002.1,N
1505593256.0,286047002.1,N
1505593275.8,286047000.0,N
1505593295.6,286046998.1,N
1505593315.5,286046998.7,N
1505593335.3,286046998.3,N
1505593355.1,286047000.0,N
1505593375.9,286047000.0,N
1505593395.7,286046998.9,N
1505593415.5,286046997.7,N
1505593435.4,286046997.1,N
1505593455.2,286046999.4,N
1505593475.0,286046997.0,N
1505593475.9,286046997.0,N
1505593495.8,286046996.8,N
1505593515.6,286047001.0,N
1505593535.4,286047000.7,N
1505593555.2,286047001.9,N
1505593575.1,286047007.7,P
1505593576.0,286047007.7,N
1505593595.8,286047006.5,N
1505593615.7,286047003.3,N
1505593635.5,286047008.8,P
1505593655.3,286046999.8,N
1505593675.2,286047000.4,N
1505593695.9,286046998.2,N
1505593715.7,286046998.8,N
1505593735.6,286046999.0,N
1505593755.4,286046998.9,N
1505593775.2,286046997.5,N
1505593795.0,286046996.3,N
1505593795.9,286046996.3,N
1505593815.8,286046996.3,N
1505593835.6,286046993.3,N
1505593855.4,286046996.6,N
1505593875.3,286046995.3,N
1505593895.1,286046999.2,N
1505593915.8,286046999.5,N
1505593935.7,286046997.6,N
1505593955.5,286046997.7,N
1505593975.3,286047000.5,N
1505593995.2,286046998.9,N
1505594015.9,286046996.9,N
1505594035.7,286046998.9,N
1505594055.5,286047000.4,N
1505594075.4,286046998.5,N
1505594095.2,286046996.5,N
1505594115.0,286046999.2,N
1505594115.9,286046999.2,N
1505594135.8,286046998.7,N
1505594155.6,286047002.8,N
1505594175.4,286046998.7,N
1505594195.3,286047001.2,N
1505594215.1,286046996.8,N
1505594235.8,286046999.5,N
1505594255.7,286046999.2,N
1505594275.5,286046997.8,N
1505594295.3,286046998.8,N
1505594315.2,286046996.6,N
1505594335.9,286046997.2,N
1505594355.7,286046997.1,N
1505594375.6,286046998.6,N
1505594395.4,286047001.3,N
1505594415.2,286047000.9,N
1505594435.0,286046998.6,N
1505594436.0,286046998.6,N
1505594455.8,286046999.6,N
1505594475.6,286046997.4,N
1505594495.4,286046998.0,N
1505594515.3,286046996.8,N
1505594535.1,286046996.7,N
1505594555.9,286046994.9,P
1505594575.7,286046997.4,N
1505594595.5,286047002.2,N
1505594615.3,286047000.0,N
1505594635.2,286047002.8,N
1505594655.0,286047001.7,N
1505594655.9,286047001.7,N
1505594675.7,286046998.1,N
1505594695.6,286046998.5,N
1505594715.4,286046996.6,N
1505594735.2,286046998.2,N
1505594755.1,286047000.9,N
1505594756.0,286047000.9,N
1505594775.8,286047000.9,N
1505594795.6,286046998.5,N
1505594815.5,286046996.8,N
1505594835.3,286046997.9,N
1505594855.1,286046997.0,N
1505594875.9,286047000.4,N
1505594895.7,286047001.0,N
1505594915.5,286046998.4,N
1505594935.3,286046998.1,N
1505594955.2,286047002.8,N
1505594975.0,286047004.2,N
1505594975.9,286047004.2,N
1505594995.7,286047000.1,N
1505595015.6,286046999.2,N
1505595035.4,286046996.9,N
1505595055.2,286046998.1,N
1505595075.1,286047004.2,N
1505595076.0,286047004.2,N
1505595095.8,286047002.4,N
1505595115.6,286047000.6,N
1505595135.5,286046998.3,N
1505595155.3,286047000.6,N
1505595175.1,286047000.2,N
1505595195.9,286047000.5,N
1505595215.7,286047000.8,N
1505595235.5,286046999.4,N
1505595255.4,286046999.4,N
1505595275.2,286047000.6,N
1505595295.0,286047000.4,N
1505595295.9,286047000.4,N
1505595315.7,286046998.5,N
1505595335.6,286046998.8,N
1505595355.4,286047002.4,N
1505595375.2,286047002.4,N
1505595395.1,286047004.1,N
1505595396.0,286047004.1,N
1505595415.8,286047001.4,N
1505595435.6,286047002.0,N
1505595455.5,286047002.8,N
1505595475.3,286046999.9,N
1505595495.1,286047001.3,N
1505595515.9,286047001.4,N
1505595535.7,286047000.9,N
1505595555.5,286047001.5,N
1505595575.4,286047002.6,N
1505595595.2,286046999.7,N
